EW6304 Weather Reports


Display with metric or nautical units.
time (UTC)temp
F
wind
direction
speed
MPH
gust
MPH
rain 1hr
in
rain 24hr
in
rain mn
in
humidity
%
barometer
mb
20260901164545 70 319 0.0 3.0 0.00 0.01 0.01 89 1016.5
20260901164047 70 105 0.0 1.0 0.00 0.01 0.01 89 1016.3
20260901163545 70 105 0.0 1.0 0.00 0.01 0.01 89 1016.2
20260901163047 70 105 0.0 1.0 0.00 0.01 0.01 88 1016.1
20260901162545 70 105 0.0 1.0 0.00 0.01 0.01 89 1016.2
20260901162047 70 105 0.0 2.0 0.00 0.01 0.01 89 1016.2
20260901161546 71 105 0.0 3.0 0.00 0.01 0.01 90 1016.5
20260901161046 71 105 1.0 3.0 0.00 0.01 0.01 90 1016.3
20260901160547 71 105 1.0 2.0 0.00 0.01 0.01 91 1016.3
20260901160047 71 107 1.0 3.0 0.00 0.01 0.01 91 1016.2
20260901155548 71 112 1.0 3.0 0.00 0.01 0.01 91 1016.2
20260901155046 71 83 1.0 3.0 0.00 0.01 0.01 92 1016.3
20260901154547 71 92 0.0 1.0 0.00 0.01 0.01 92 1016.5
20260901154047 71 92 1.0 1.0 0.00 0.01 0.01 92 1016.5
20260901153552 71 92 1.0 2.0 0.00 0.01 0.01 93 1016.6
20260901153546 71 92 1.0 2.0 0.00 0.01 0.01 93 1016.6
20260901152551 70 92 1.0 2.0 0.00 0.01 0.01 93 1016.7
20260901152546 70 92 1.0 2.0 0.00 0.01 0.01 93 1016.7
20260901152204 70 89 0.0 2.0 0.00 0.01 0.01 94 1016.8
20260901151546 70 92 0.0 2.0 0.00 0.01 0.01 94 1016.8
20260901150546 70 89 0.0 2.0 0.00 0.01 0.01 94 1016.8
20260901150045 70 89 1.0 3.0 0.00 0.01 0.01 94 1016.8
20260901145546 70 89 1.0 3.0 0.00 0.01 0.01 94 1016.9
20260901145045 70 92 1.0 2.0 0.00 0.01 0.01 95 1016.9
20260901144545 70 92 1.0 2.0 0.00 0.01 0.01 95 1016.9
20260901144044 69 93 1.0 2.0 0.00 0.01 0.01 95 1016.9
20260901143544 69 92 1.0 2.0 0.00 0.01 0.01 95 1017.0
20260901143041 69 93 1.0 2.0 0.00 0.01 0.01 95 1017.0
20260901142542 69 92 1.0 2.0 0.00 0.01 0.01 96 1017.0
20260901142043 69 92 0.0 2.0 0.00 0.01 0.01 95 1017.0
20260901141541 68 92 0.0 2.0 0.00 0.01 0.01 95 1017.1
20260901141042 68 92 0.0 2.0 0.00 0.01 0.01 95 1017.1
20260901140541 68 92 0.0 1.0 0.01 0.01 0.01 95 1017.2
20260901140041 68 92 0.0 1.0 0.01 0.01 0.01 95 1017.2
20260901135541 68 92 0.0 1.0 0.01 0.01 0.01 95 1017.3
20260901135041 68 92 0.0 1.0 0.01 0.01 0.01 95 1017.2
20260901134543 68 92 0.0 1.0 0.01 0.01 0.01 95 1017.1
20260901134047 68 92 0.0 1.0 0.01 0.01 0.01 95 1017.1
20260901134041 68 92 0.0 1.0 0.01 0.01 0.01 95 1017.3
20260901133539 68 92 0.0 1.0 0.01 0.01 0.01 95 1017.3
20260901132541 67 92 0.0 1.0 0.01 0.01 0.01 95 1017.0
20260901132040 67 92 0.0 0.0 0.01 0.01 0.01 95 1017.1
20260901131541 67 92 0.0 0.0 0.01 0.01 0.01 95 1017.3
20260901131039 67 92 0.0 0.0 0.01 0.01 0.01 95 1017.2
20260901130539 67 92 0.0 0.0 0.00 0.00 0.00 95 1017.2
20260901130040 67 92 0.0 0.0 0.00 0.00 0.00 94 1017.2
20260901125540 67 92 0.0 0.0 0.00 0.00 0.00 95 1017.2
20260901125043 67 92 0.0 0.0 0.00 0.00 0.00 95 1017.0
20260901125039 67 92 0.0 0.0 0.00 0.00 0.00 95 1017.1
20260901124657 67 92 0.0 0.0 0.00 0.00 0.00 95 1017.1
20260901123537 67 92 0.0 0.0 0.00 0.00 0.00 95 1017.1
20260901123038 67 92 0.0 0.0 0.00 0.00 0.00 94 1017.1
20260901122537 67 92 0.0 0.0 0.00 0.00 0.00 95 1017.1
20260901122037 67 92 0.0 0.0 0.00 0.00 0.00 94 1017.1
20260901121538 66 92 0.0 0.0 0.00 0.00 0.00 95 1017.1
20260901121037 66 92 0.0 0.0 0.00 0.00 0.00 95 1017.0
20260901120538 66 92 0.0 0.0 0.00 0.00 0.00 94 1017.0
20260901120038 66 92 0.0 0.0 0.00 0.00 0.00 94 1017.0
20260901115535 66 92 0.0 0.0 0.00 0.00 0.00 94 1017.0
20260901115034 66 92 0.0 1.0 0.00 0.00 0.00 94 1017.0
20260901114540 66 92 0.0 1.0 0.00 0.00 0.00 95 1016.8
20260901114536 66 92 0.0 1.0 0.00 0.00 0.00 94 1016.9
20260901113535 66 92 0.0 1.0 0.00 0.00 0.00 95 1016.7
20260901113042 66 92 0.0 1.0 0.00 0.00 0.00 94 1016.8
20260901113036 66 92 0.0 1.0 0.00 0.00 0.00 95 1016.7
20260901112036 66 92 0.0 0.0 0.00 0.00 0.00 94 1016.9
20260901111536 65 92 0.0 0.0 0.00 0.00 0.00 94 1016.8
20260901111035 65 92 0.0 0.0 0.00 0.00 0.00 94 1016.7
20260901110534 65 92 0.0 0.0 0.00 0.00 0.00 94 1016.7
20260901110035 65 92 0.0 0.0 0.00 0.00 0.00 94 1016.7
20260901105535 65 92 0.0 0.0 0.00 0.00 0.00 94 1016.8
20260901105037 65 92 0.0 0.0 0.00 0.00 0.00 94 1016.7
20260901104540 65 92 0.0 0.0 0.00 0.00 0.00 94 1016.7
20260901104535 65 92 0.0 0.0 0.00 0.00 0.00 94 1016.7
20260901103540 65 92 0.0 0.0 0.00 0.00 0.00 94 1016.5
20260901103535 65 92 0.0 0.0 0.00 0.00 0.00 94 1016.6
20260901102536 65 92 0.0 0.0 0.00 0.00 0.00 94 1016.5
20260901102035 65 92 0.0 0.0 0.00 0.00 0.00 94 1016.3
20260901101532 65 92 0.0 0.0 0.00 0.00 0.00 94 1016.3
20260901101153 65 92 0.0 0.0 0.00 0.00 0.00 94 1016.2
20260901101033 65 92 0.0 0.0 0.00 0.00 0.00 94 1016.2
20260901100540 65 92 0.0 0.0 0.00 0.00 0.00 94 1016.2
20260901100535 65 92 0.0 0.0 0.00 0.00 0.00 94 1016.3
20260901095035 65 92 0.0 0.0 0.00 0.00 0.00 93 1016.2
20260901094531 65 92 0.0 0.0 0.00 0.00 0.00 93 1016.2
20260901094030 65 92 0.0 0.0 0.00 0.00 0.00 93 1016.3
20260901093532 65 92 0.0 0.0 0.00 0.00 0.00 93 1016.3
20260901093029 65 92 0.0 0.0 0.00 0.00 0.00 93 1016.2
20260901092528 65 92 0.0 0.0 0.00 0.00 0.00 93 1016.2
20260901092028 65 92 0.0 0.0 0.00 0.00 0.00 93 1016.2
20260901091529 65 92 0.0 0.0 0.00 0.00 0.00 93 1016.3
20260901091030 65 92 0.0 0.0 0.00 0.00 0.00 93 1016.2
20260901090530 65 92 0.0 0.0 0.00 0.00 0.00 93 1016.3
20260901090035 65 92 0.0 0.0 0.00 0.00 0.00 93 1016.3
20260901090029 65 92 0.0 0.0 0.00 0.00 0.00 93 1016.3
20260901085029 65 92 0.0 0.0 0.00 0.00 0.00 93 1016.6
20260901084529 65 92 0.0 0.0 0.00 0.00 0.00 93 1016.6
20260901084034 65 92 0.0 0.0 0.00 0.00 0.00 93 1016.6
20260901084029 65 92 0.0 0.0 0.00 0.00 0.00 93 1016.5
20260901083034 65 92 0.0 0.0 0.00 0.00 0.00 93 1016.8
20260901083029 65 92 0.0 0.0 0.00 0.00 0.00 93 1016.8
20260901082650 65 92 0.0 0.0 0.00 0.00 0.00 93 1017.0
20260901082028 65 92 0.0 0.0 0.00 0.00 0.00 93 1016.9
20260901081535 65 92 0.0 0.0 0.00 0.00 0.00 93 1017.0
20260901081531 65 92 0.0 0.0 0.00 0.00 0.00 93 1017.0
20260901080027 65 92 0.0 0.0 0.00 0.00 0.00 93 1017.0
20260901075531 65 92 0.0 0.0 0.00 0.00 0.00 93 1017.0
20260901075526 65 92 0.0 0.0 0.00 0.00 0.00 93 1017.1
20260901075141 65 92 0.0 0.0 0.00 0.00 0.00 93 1017.0
20260901074022 65 92 0.0 0.0 0.00 0.00 0.00 93 1017.0
20260901073641 65 92 0.0 0.0 0.00 0.00 0.00 93 1017.2
20260901073529 65 92 0.0 0.0 0.00 0.00 0.00 93 1017.1
20260901073524 65 92 0.0 0.0 0.00 0.00 0.00 93 1017.1
20260901072523 65 92 0.0 0.0 0.00 0.00 0.00 93 1017.1
20260901071524 65 92 0.0 0.0 0.00 0.00 0.00 93 1017.1
20260901071024 65 92 0.0 0.0 0.00 0.00 0.00 93 1017.2
20260901070523 65 92 0.0 0.0 0.00 0.00 0.00 93 1017.2
20260901070023 65 92 0.0 0.0 0.00 0.00 0.00 93 1017.2
20260901065521 65 92 0.0 0.0 0.00 0.00 0.00 93 1017.3
20260901065022 65 92 0.0 0.0 0.00 0.00 0.00 93 1017.3
20260901064523 65 92 0.0 0.0 0.00 0.00 0.00 93 1017.4
20260901064019 65 92 0.0 0.0 0.00 0.00 0.00 93 1017.3
20260901063519 65 92 0.0 0.0 0.00 0.00 0.00 93 1017.4
20260901063020 65 92 0.0 0.0 0.00 0.00 0.00 92 1017.3
20260901062520 65 92 0.0 0.0 0.00 0.00 0.00 93 1017.3
20260901062018 65 92 0.0 0.0 0.00 0.00 0.00 92 1017.4
20260901061520 65 92 0.0 0.0 0.00 0.00 0.00 92 1017.4
20260901061019 65 92 0.0 1.0 0.00 0.00 0.00 92 1017.4
20260901060517 65 92 0.0 1.0 0.00 0.00 0.00 92 1017.3
20260901060017 65 92 0.0 1.0 0.00 0.00 0.00 92 1017.4
20260901055517 65 92 0.0 0.0 0.00 0.00 0.00 92 1017.4
20260901055016 65 92 0.0 0.0 0.00 0.00 0.00 92 1017.4
20260901054517 65 92 0.0 0.0 0.00 0.00 0.00 92 1017.3
20260901054016 65 92 0.0 0.0 0.00 0.00 0.00 92 1017.1
20260901053516 65 92 0.0 0.0 0.00 0.00 0.00 92 1017.3
20260901053018 65 92 0.0 0.0 0.00 0.00 0.00 92 1017.4
20260901052517 65 92 0.0 0.0 0.00 0.00 0.00 92 1017.5
20260901052020 65 92 0.0 0.0 0.00 0.00 0.00 92 1017.6
20260901052015 65 92 0.0 0.0 0.00 0.00 0.00 91 1017.7
20260901051015 65 92 0.0 0.0 0.00 0.00 0.00 91 1017.7
20260901050515 65 92 0.0 0.0 0.00 0.00 0.00 91 1017.6
20260901050136 65 92 0.0 0.0 0.00 0.00 0.00 91 1017.5
20260901050020 65 92 0.0 0.0 0.00 0.00 0.00 91 1017.5
20260901050014 65 92 0.0 0.0 0.00 0.00 0.00 91 1017.5
20260901044519 66 92 0.0 1.0 0.00 0.00 0.00 91 1017.6
20260901044515 66 92 0.0 1.0 0.00 0.00 0.00 91 1017.6
20260901044131 66 92 0.0 1.0 0.00 0.00 0.00 91 1017.6
20260901043013 66 92 0.0 0.0 0.00 0.00 0.00 91 1017.6
20260901042513 66 92 0.0 1.0 0.00 0.00 0.00 91 1017.6
20260901042018 66 92 0.0 1.0 0.00 0.01 0.00 91 1017.8
20260901042013 66 92 0.0 1.0 0.00 0.01 0.00 91 1017.7
20260901041013 66 92 0.0 1.0 0.00 0.01 0.00 91 1017.8
20260901040510 66 92 0.0 0.0 0.00 0.01 0.00 91 1017.7
20260901040009 66 92 0.0 1.0 0.00 0.01 0.00 91 1017.8
20260901035511 66 92 0.0 1.0 0.00 0.01 0.01 91 1017.7
20260901035011 66 92 0.0 1.0 0.00 0.01 0.01 90 1017.7
20260901034510 66 92 0.0 0.0 0.00 0.02 0.01 91 1017.7
20260901034011 66 92 0.0 1.0 0.00 0.04 0.01 90 1017.8
20260901033511 66 92 0.0 1.0 0.00 0.18 0.01 90 1017.8
20260901033010 66 92 0.0 1.0 0.00 0.25 0.01 90 1017.8
20260901032511 66 92 0.0 1.0 0.00 0.33 0.01 90 1017.8
20260901032015 66 92 0.0 1.0 0.00 0.40 0.01 90 1017.7
20260901032009 66 92 0.0 1.0 0.00 0.44 0.01 90 1017.8
20260901031626 66 92 0.0 1.0 0.00 0.45 0.01 90 1017.8
20260901031010 66 92 0.0 1.0 0.00 0.44 0.01 90 1017.8
20260901030008 66 92 0.0 1.0 0.00 0.45 0.01 90 1017.9
20260901025514 66 92 0.0 1.0 0.00 0.46 0.01 90 1017.8
20260901025510 66 92 0.0 1.0 0.00 0.46 0.01 90 1017.8
20260901024508 66 92 0.0 1.0 0.00 0.46 0.01 90 1017.7
20260901024009 66 92 0.0 1.0 0.00 0.47 0.01 89 1017.7
20260901023508 66 92 0.0 1.0 0.00 0.47 0.01 89 1017.8
20260901023009 66 92 0.0 1.0 0.00 0.47 0.01 89 1017.8
20260901022509 66 92 0.0 2.0 0.00 0.47 0.01 89 1017.9
20260901022009 66 92 1.0 2.0 0.00 0.47 0.01 89 1018.0
20260901021513 66 115 0.0 2.0 0.00 0.47 0.01 89 1018.0
20260901021509 66 115 0.0 2.0 0.00 0.47 0.01 89 1018.0
20260901020508 67 115 0.0 1.0 0.00 0.47 0.01 89 1018.0
20260901020009 67 53 0.0 1.0 0.00 0.47 0.01 89 1018.1
20260901015509 67 53 0.0 2.0 0.00 0.47 0.01 89 1018.1
20260901015015 67 51 0.0 4.0 0.00 0.47 0.01 89 1018.1
20260901015009 67 53 0.0 2.0 0.00 0.47 0.01 89 1018.2
20260901014508 67 51 0.0 3.0 0.00 0.47 0.01 89 1018.2
20260901013508 67 51 0.0 4.0 0.00 0.47 0.01 89 1018.1
20260901013009 67 51 0.0 1.0 0.00 0.47 0.01 89 1018.1
20260901012508 67 51 0.0 2.0 0.00 0.47 0.01 89 1018.0
20260901012007 67 83 0.0 2.0 0.00 0.47 0.01 89 1018.1
20260901011508 67 86 0.0 3.0 0.00 0.47 0.01 89 1018.1
20260901011014 68 117 1.0 2.0 0.00 0.47 0.01 89 1018.0
20260901011009 67 80 1.0 3.0 0.00 0.47 0.01 89 1018.0
20260901010509 67 117 1.0 2.0 0.00 0.47 0.01 89 1018.0
20260901005508 68 116 0.0 2.0 0.00 0.47 0.01 88 1018.0
20260901005011 68 112 1.0 2.0 0.00 0.47 0.01 88 1017.9
20260901005006 68 114 0.0 2.0 0.00 0.47 0.01 88 1017.9
20260901004007 68 111 0.0 1.0 0.00 0.47 0.01 88 1017.9
20260901003506 68 109 0.0 1.0 0.00 0.47 0.01 88 1017.9
20260901003006 68 111 0.0 1.0 0.00 0.47 0.01 88 1017.9
20260901002504 68 111 0.0 2.0 0.00 0.47 0.01 88 1017.9
20260901002005 68 119 0.0 2.0 0.00 0.47 0.01 88 1017.9
20260901001505 68 85 0.0 1.0 0.00 0.47 0.01 87 1017.9
20260901001007 68 85 0.0 1.0 0.00 0.47 0.01 87 1017.9
20260901000624 68 85 0.0 1.0 0.00 0.47 0.01 85 1018.0
20260901000512 68 85 0.0 2.0 0.00 0.47 0.01 86 1018.0
20260901000507 68 85 0.0 2.0 0.00 0.47 0.01 87 1017.9
20260831235004 68 85 0.0 1.0 0.00 0.47 0.01 85 1017.9
20260831234503 68 85 0.0 0.0 0.00 0.47 0.01 85 1017.9
20260831234003 68 85 0.0 0.0 0.00 0.47 0.01 85 1017.8
20260831233508 69 85 0.0 0.0 0.00 0.47 0.01 84 1017.9
20260831233504 69 85 0.0 0.0 0.00 0.47 0.01 85 1017.8
20260831232504 69 85 0.0 0.0 0.00 0.47 0.01 84 1018.0
20260831232004 69 85 0.0 0.0 0.00 0.47 0.01 84 1017.9
20260831231509 69 85 0.0 1.0 0.00 0.47 0.01 84 1017.9
20260831231503 69 85 0.0 1.0 0.00 0.47 0.01 84 1017.9
20260831230506 70 85 0.0 1.0 0.00 0.47 0.01 83 1017.9
20260831230502 69 85 0.0 0.0 0.00 0.47 0.01 84 1017.9
20260831230120 70 85 0.0 1.0 0.00 0.47 0.01 84 1018.0
20260831225007 70 85 0.0 1.0 0.00 0.47 0.01 84 1017.9
20260831225000 70 85 0.0 1.0 0.00 0.47 0.01 84 1018.0
20260831224004 70 85 0.0 2.0 0.00 0.47 0.01 82 1018.1
20260831224000 70 85 0.0 2.0 0.00 0.47 0.01 83 1018.1
20260831223005 71 84 0.0 2.0 0.00 0.47 0.01 82 1018.1
20260831223001 70 84 0.0 2.0 0.00 0.47 0.01 82 1018.1
20260831222001 71 84 0.0 2.0 0.00 0.47 0.01 83 1018.1
20260831221505 71 84 0.0 2.0 0.00 0.47 0.01 81 1018.0
20260831221500 71 84 0.0 2.0 0.00 0.47 0.01 82 1018.1
20260831220504 71 84 0.0 2.0 0.00 0.47 0.01 83 1018.0
20260831220459 71 84 0.0 2.0 0.00 0.47 0.01 81 1018.0
20260831215458 71 84 0.0 2.0 0.00 0.47 0.01 83 1018.1
20260831214958 71 90 0.0 2.0 0.00 0.47 0.01 82 1018.2
20260831214458 71 90 0.0 2.0 0.00 0.47 0.01 82 1018.2
20260831214002 71 89 0.0 2.0 0.00 0.47 0.01 82 1018.1
20260831213958 71 0 0.0 2.0 0.00 0.47 0.01 83 1018.1
20260831213002 71 99 0.0 1.0 0.00 0.47 0.01 81 1018.1
20260831212957 71 99 0.0 1.0 0.00 0.47 0.01 82 1018.1
20260831211956 71 99 1.0 2.0 0.00 0.47 0.01 81 1018.1
20260831211504 71 84 0.0 1.0 0.00 0.47 0.01 82 1018.2
20260831211456 71 99 1.0 2.0 0.00 0.47 0.01 80 1018.1
20260831210956 71 101 0.0 2.0 0.00 0.47 0.01 83 1018.1
20260831210613 71 84 0.0 1.0 0.00 0.47 0.01 82 1018.2
20260831205454 71 84 0.0 1.0 0.00 0.47 0.01 82 1018.1
20260831204954 71 84 0.0 1.0 0.00 0.47 0.01 81 1018.1
20260831204455 71 84 0.0 1.0 0.00 0.47 0.01 81 1018.2
20260831204002 71 84 0.0 2.0 0.00 0.47 0.01 80 1018.1
20260831203955 71 84 0.0 1.0 0.00 0.47 0.01 80 1018.0
20260831203456 71 84 0.0 1.0 0.00 0.47 0.01 81 1018.1
20260831202454 71 84 0.0 2.0 0.00 0.47 0.01 80 1018.1
20260831201954 71 84 0.0 1.0 0.00 0.47 0.01 80 1018.1
20260831201453 72 84 1.0 3.0 0.00 0.47 0.01 80 1018.2
20260831200955 72 84 1.0 3.0 0.00 0.47 0.01 79 1018.1
20260831200454 72 105 1.0 2.0 0.00 0.47 0.01 79 1018.0
20260831195953 72 105 1.0 3.0 0.00 0.47 0.01 80 1018.1
20260831195454 72 105 1.0 3.0 0.00 0.47 0.01 78 1018.2
20260831194952 72 106 1.0 3.0 0.00 0.47 0.01 78 1018.2
20260831194451 72 106 1.0 3.0 0.00 0.47 0.01 77 1018.3
20260831193948 72 80 1.0 3.0 0.00 0.47 0.01 77 1018.3
20260831193455 72 96 0.0 2.0 0.00 0.47 0.01 77 1018.3
20260831193449 72 97 0.0 2.0 0.00 0.47 0.01 78 1018.4
20260831192449 72 117 1.0 3.0 0.00 0.47 0.01 78 1018.4
20260831191947 72 117 1.0 3.0 0.00 0.47 0.01 77 1018.5
20260831191447 73 67 1.0 2.0 0.00 0.47 0.01 78 1018.4
20260831190949 73 67 1.0 2.0 0.00 0.47 0.01 76 1018.5
20260831190447 73 67 1.0 2.0 0.00 0.47 0.01 77 1018.5
20260831185946 73 63 1.0 2.0 0.00 0.47 0.01 76 1018.6
20260831185449 73 331 1.0 2.0 0.00 0.47 0.01 77 1018.8
20260831184946 73 88 1.0 2.0 0.00 0.47 0.01 74 1018.7
20260831184447 73 88 1.0 2.0 0.00 0.47 0.01 76 1018.8
20260831183946 73 88 1.0 3.0 0.00 0.47 0.01 74 1018.9
20260831183452 73 77 0.0 3.0 0.00 0.47 0.01 74 1019.0
20260831183448 73 77 1.0 3.0 0.00 0.47 0.01 75 1018.9
20260831183106 73 78 0.0 2.0 0.00 0.47 0.01 74 1019.0
20260831181952 73 78 1.0 2.0 0.00 0.47 0.01 73 1018.9
20260831181947 73 78 0.0 2.0 0.00 0.47 0.01 75 1018.9
20260831180947 73 78 0.0 1.0 0.00 0.47 0.01 74 1019.0
20260831180449 73 78 0.0 1.0 0.00 0.47 0.01 75 1019.0
20260831175949 73 78 0.0 2.0 0.00 0.47 0.01 77 1018.9
20260831175448 73 78 1.0 3.0 0.00 0.47 0.01 74 1019.0
20260831174946 73 78 1.0 3.0 0.00 0.47 0.01 73 1019.0
20260831174447 73 57 0.0 2.0 0.00 0.47 0.01 73 1019.2
20260831173946 73 57 1.0 2.0 0.00 0.47 0.01 73 1019.2
20260831173446 73 319 1.0 2.0 0.00 0.47 0.01 71 1019.2
20260831172945 73 322 0.0 1.0 0.00 0.47 0.01 68 1019.2
20260831172445 73 321 0.0 1.0 0.00 0.47 0.01 69 1019.1
20260831171950 73 321 1.0 2.0 0.00 0.47 0.01 70 1019.1
20260831171945 73 321 0.0 2.0 0.00 0.47 0.01 70 1019.2
20260831170945 72 321 1.0 2.0 0.00 0.47 0.01 71 1019.2
20260831170442 72 38 1.0 2.0 0.00 0.47 0.01 72 1019.2
20260831165949 73 38 1.0 2.0 0.00 0.47 0.01 68 1019.4
20260831165942 72 38 1.0 2.0 0.00 0.47 0.01 70 1019.3
20260831165443 73 38 1.0 2.0 0.00 0.47 0.01 70 1019.4
20260831165102 73 38 1.0 4.0 0.00 0.47 0.01 66 1019.4